Location: Bastrop State Park
(30.1090°N, 97.2819°W)
Time: 14:25:11
(UTC-06:00)

Daily predictions for brighter satellites

Satellite Brightness Start Highest point End
(mag) Time Altitude Azimuth Time Altitude Azimuth Time Altitude Azimuth
Cosmos 1484 Rocket 3.1 18:15:20 10° SSE 18:19:03 44° ENE 18:22:51 10° N
USA 229 DEB 4.2 18:15:06 10° S 18:21:23 40° ESE 18:27:44 10° NE
USA 229 4.2 18:15:14 10° S 18:21:29 40° ESE 18:27:49 10° NE
Cosmos 1515 Rocket 4.1 18:17:18 10° NNW 18:21:44 67° W 18:26:05 10° S
Cosmos 1805 Rocket 4.0 18:18:03 10° SSE 18:22:15 42° E 18:26:28 10° NNE
Cosmos 1125 Rocket 3.5 18:17:59 10° NNW 18:23:11 78° ENE 18:28:22 10° SSE
Cosmos 1184 Rocket 4.3 18:21:15 10° SE 18:23:39 18° E 18:26:02 10° NE
BREEZE-M DEB (TANK) 4.1 18:21:50 10° NW 18:25:20 69° SW 18:37:02 10° SE
SKYMED 2 3.5 18:25:12 10° NNE 18:29:32 82° E 18:33:52 10° S
Cosmos 2058 3.1 18:27:14 10° S 18:31:20 76° W 18:35:26 10° N
SPOT 3 Rocket 4.2 18:28:17 10° S 18:33:21 63° WSW 18:38:29 10° NNW
Cosmos 2297 4.3 18:28:27 10° N 18:33:35 33° ENE 18:38:43 10° SE
Cosmos 1461 3.6 18:30:53 10° SW 18:35:03 53° WNW 18:39:05 10° NNE
Meteor 2-10 4.0 18:30:31 10° N 18:35:38 64° E 18:40:55 10° SSE
Hubble Space Telescope 3.6 18:34:18 10° WSW 18:36:27 14° SSW 18:38:35 10° S
Sich 1 3.5 18:33:16 10° SSE 18:37:24 39° E 18:41:33 10° NNE
Meteor 1-28 Rocket 3.1 18:34:27 10° NNE 18:38:09 68° E 18:41:51 10° S
Cosmos 1538 Rocket 4.0 18:32:57 10° S 18:38:10 69° ESE 18:43:29 10° NNE
MONITOR-E 4.4 18:36:49 10° S 18:39:58 75° W 18:43:07 10° NNW
Cosmos 1633 Rocket 3.4 18:42:10 10° SSE 18:46:21 44° E 18:50:32 10° NNE
METEOR-M 4.5 18:45:09 10° SE 18:50:07 41° ENE 18:55:06 10° N
Delta 2 Rocket 4.2 18:48:58 10° SSW 18:51:48 26° SSE 18:53:33 17° ESE
Cosmos 1356 Rocket 3.2 18:48:11 10° S 18:52:10 78° E 18:56:10 10° N
FAST Rocket 3.7 18:49:21 10° S 18:52:11 75° E 18:54:47 10° N
Cosmos 1680 Rocket 4.4 18:48:37 10° SSE 18:52:58 28° E 18:56:19 15° NE
Aureole 1 Rocket 3.7 18:51:51 10° S 18:56:35 62° ESE 19:02:58 10° NNE
FREGAT/IRIS 3.5 18:54:18 10° SE 18:56:57 28° ENE 18:59:37 10° NNE
Coronas F rocket 1.2 18:56:31 10° SSE 18:58:48 44° E 18:59:27 33° NE
NOAA 12 4.1 18:57:10 10° SSE 19:02:17 59° ENE 19:07:27 10° N
Intelsat 5-1 Rocket 3.0 19:00:35 10° WSW 19:02:51 26° S 19:05:57 12° ESE
Lacrosse 5 rocket 1.1 19:00:03 10° NNW 19:03:55 77° NE 19:08:02 10° SE
Cosmos 1626 2.6 19:02:22 10° SSW 19:06:03 62° W 19:09:45 10° N
OTV 4 1.7 19:07:06 10° W 19:09:53 38° SSW 19:11:49 17° SSE
NOSS 3-1 (C) 4.0 19:08:55 10° S 19:13:50 32° ESE 19:15:41 27° ENE
Cosmos 773 Rocket 4.1 19:10:53 10° SSW 19:16:01 77° WNW 19:21:14 10° NNE
Cosmos 1707 Rocket 3.6 19:12:50 10° N 19:17:10 82° W 19:21:30 10° S
Cosmos 1603 3.6 19:14:25 10° SSW 19:20:00 74° ESE 19:24:34 16° NNE
Cosmos 1666 Rocket 4.4 19:17:24 10° SSW 19:21:35 49° W 19:25:50 10° N
OAO 1 Rocket 4.3 19:16:34 10° WNW 19:21:54 80° NNE 19:24:22 32° ESE
Timation 1 Rocket 4.5 19:17:14 10° NNW 19:23:15 78° WSW 19:29:14 10° SSE
Resurs 01 Rocket 2.7 19:21:03 10° SE 19:26:52 28° NNE 19:29:19 10° N
SJ-6B 2.8 19:22:12 10° SSE 19:26:15 90° NW 19:30:22 10° NNW
USA 215 3.8 19:24:58 29° ENE 19:27:10 37° NE 19:33:05 10° NNW
Cosmos 2112 Rocket 4.0 19:23:58 10° S 19:29:00 56° ESE 19:31:04 34° NE
Cosmos 1455 2.3 19:25:31 10° N 19:29:18 74° W 19:33:07 10° S
Cosmos 1933 Rocket 3.4 19:28:43 10° S 19:33:06 70° E 19:34:57 34° NNE
Cosmos 2278 Rocket 4.4 19:28:51 10° NW 19:33:33 27° WSW 19:38:14 10° SSW
Milstar 3 3.7 19:28:36 10° W 19:34:49 42° SSW 19:41:03 14° SE
Tiangong 1 1.9 19:32:02 10° WSW 19:34:31 43° WNW 19:34:31 43° WNW
Cosmos 1655 Rocket 4.3 19:29:06 10° SSE 19:35:07 45° E 19:37:29 32° NE
Cosmos 1627 Rocket 4.3 19:34:20 10° S 19:40:30 68° E 19:46:36 10° NNE
Cosmos 1470 Rocket 4.2 19:50:17 10° SSW 19:54:34 54° W 19:56:38 28° NNW
Lacrosse 4 Rocket 3.9 19:54:36 10° NNW 19:54:54 12° NNW 19:54:54 12° NNW
ALOS 2.4 19:54:46 10° S 19:59:24 72° WSW 20:04:04 10° NNW
Helios 1B rocket 3.7 20:02:09 33° SSW 20:02:09 33° SSW 20:04:29 10° SSW
Spot 2 Rocket 3.5 19:58:00 10° S 20:03:02 79° WSW 20:08:06 10° NNW
CCE 1 Rocket 4.3 20:00:03 10° WSW 20:04:34 66° SSE 20:04:49 65° SSE
Cosmos 2026 Rocket 4.0 20:03:20 10° S 20:09:34 75° W 20:13:47 21° N
NOSS 3-1 (A) 3.7 20:20:14 10° SSW 20:24:37 57° SW 20:24:37 57° SW
Cosmos 1943 4.1 20:32:33 10° SW 20:37:08 46° W 20:37:08 46° W
Centaur D-1A AC-35 4.0 20:03:05 10° W 20:43:07 70° S 20:43:51 67° SSE
USA 215 4.5 21:12:20 35° WNW 21:12:20 35° WNW 21:16:17 10° NW
